{"data":{"norad_id":28158,"intl_designator":"2004-004A","name":"USA 176 (DSP 22)","alt_names":[],"object_type":"PAYLOAD","status":"ACTIVE","operator":null,"country":"US","launch_date":"2004-02-14","launch_site_code":"AFETR","launch_vehicle":null,"mission":null,"orbit_class":"UNKNOWN","rcs_meters":null,"size_class":null,"mass_kg":null,"dimensions":null,"purposes":["comms"],"wikipedia_slug":null,"has_3d_model":false,"image_url":null,"decayed_at":null,"tle_current":{"epoch":"2026-09-18T06:24:08.303328Z","epoch_age_seconds":210578,"freshness":"STALE","line1":"1 28158U 04004A   26261.26676277 -.00000100  00000+0  00000+0 0  9992","line2":"2 28158  12.1825  25.3658 0015284 279.4701  73.4916  0.98852003 33869","mean_motion":0.98852003,"eccentricity":0.0015284,"inclination_deg":12.1825,"raan_deg":25.3658,"arg_perigee_deg":279.4701,"mean_anomaly_deg":73.4916,"bstar":0,"rev_number":3386,"period_min":1456.7231379216,"perigee_km":36124.3074817,"apogee_km":36254.427829932,"semimajor_km":42567.504655816,"source":"CELESTRAK","updated_at":"2026-09-20T09:00:35.123063Z"}}}